CW7410 Weather Reports


Display with metric or nautical units.
time (UTC)temp
F
wind
direction
speed
MPH
gust
MPH
rain 1hr
in
rain 24hr
in
rain mn
in
humidity
%
barometer
mb
20260505210537 54 50 7.0 11.0 0.00 0.00 0.00 67 1009.8
20260505210054 54 69 7.0 11.0 0.00 0.00 0.00 68 1009.8
20260505205539 54 88 7.0 11.0 0.00 0.00 0.00 68 1009.9
20260505205038 54 90 6.0 12.0 0.00 0.00 0.00 67 1009.9
20260505204557 54 86 6.0 12.0 0.00 0.00 0.00 66 1009.9
20260505204037 54 89 7.0 12.0 0.00 0.00 0.00 66 1009.8
20260505203539 54 82 7.0 13.0 0.00 0.00 0.00 65 1010.0
20260505203055 54 360 8.0 16.0 0.00 0.00 0.00 63 1010.2
20260505202544 55 51 7.0 16.0 0.00 0.00 0.00 62 1010.4
20260505202042 55 360 10.0 16.0 0.00 0.00 0.00 59 1010.4
20260505201556 57 360 8.0 12.0 0.00 0.00 0.00 56 1010.4
20260505201038 58 23 4.0 10.0 0.00 0.00 0.00 52 1010.4
20260505200537 58 77 5.0 9.0 0.00 0.00 0.00 52 1010.3
20260505200051 58 100 2.0 7.0 0.00 0.00 0.00 51 1010.2
20260505195540 58 121 3.0 11.0 0.00 0.00 0.00 51 1010.2
20260505195041 58 121 3.0 13.0 0.00 0.00 0.00 51 1010.1
20260505194606 58 171 7.0 13.0 0.00 0.00 0.00 51 1009.9
20260505194041 58 147 7.0 13.0 0.00 0.00 0.00 51 1009.8
20260505193540 58 140 7.0 13.0 0.00 0.00 0.00 51 1009.8
20260505193052 58 153 6.0 15.0 0.00 0.00 0.00 51 1009.8
20260505192538 58 201 7.0 15.0 0.00 0.00 0.00 51 1009.8
20260505192040 58 157 7.0 15.0 0.00 0.00 0.00 52 1009.7
20260505191547 58 132 8.0 16.0 0.00 0.00 0.00 51 1009.7
20260505191038 58 188 7.0 16.0 0.00 0.00 0.00 51 1009.7
20260505190540 58 143 10.0 18.0 0.00 0.00 0.00 51 1009.6
20260505190047 58 163 10.0 21.0 0.00 0.00 0.00 51 1009.6
20260505185538 58 179 10.0 21.0 0.00 0.00 0.00 52 1009.5
20260505185038 58 163 9.0 17.0 0.00 0.00 0.00 53 1009.6
20260505184549 57 141 10.0 17.0 0.00 0.00 0.00 53 1009.6
20260505184038 57 145 7.0 18.0 0.00 0.00 0.00 53 1009.7
20260505183537 57 132 10.0 18.0 0.00 0.00 0.00 53 1009.7
20260505183053 57 142 8.0 18.0 0.00 0.00 0.00 54 1009.7
20260505182541 56 186 8.0 18.0 0.00 0.00 0.00 54 1009.8
20260505182044 56 167 10.0 18.0 0.00 0.00 0.00 53 1009.8
20260505181558 56 221 9.0 18.0 0.00 0.00 0.00 53 1009.8
20260505181039 56 171 10.0 18.0 0.00 0.00 0.00 54 1009.8
20260505180540 56 144 8.0 17.0 0.00 0.00 0.00 55 1009.7
20260505180053 56 157 9.0 17.0 0.00 0.00 0.00 54 1009.8
20260505175540 56 148 11.0 17.0 0.00 0.00 0.00 55 1009.8
20260505175040 56 115 11.0 18.0 0.00 0.00 0.00 54 1009.8
20260505174554 56 136 8.0 18.0 0.00 0.00 0.00 54 1009.9
20260505174040 57 155 9.0 17.0 0.00 0.00 0.00 54 1009.9
20260505173537 57 171 10.0 17.0 0.00 0.00 0.00 54 1009.8
20260505173052 57 77 10.0 17.0 0.00 0.00 0.00 54 1009.8
20260505172539 57 151 9.0 17.0 0.00 0.00 0.00 54 1009.8
20260505172041 57 128 9.0 17.0 0.00 0.00 0.00 54 1009.8
20260505171555 57 151 9.0 17.0 0.00 0.00 0.00 54 1009.8
20260505171042 56 137 10.0 19.0 0.00 0.00 0.00 54 1009.7
20260505170540 56 143 11.0 19.0 0.00 0.00 0.00 53 1009.6
20260505170054 56 360 13.0 20.0 0.00 0.00 0.00 53 1009.6
20260505165540 57 360 10.0 20.0 0.00 0.00 0.00 53 1009.6
20260505165041 57 169 11.0 20.0 0.00 0.00 0.00 54 1009.6
20260505164614 56 175 7.0 18.0 0.00 0.00 0.00 54 1009.5
20260505164043 56 219 7.0 17.0 0.00 0.00 0.00 54 1009.5
20260505163541 56 119 11.0 17.0 0.00 0.00 0.00 54 1009.5
20260505163053 56 360 9.0 18.0 0.00 0.00 0.00 54 1009.6
20260505162540 56 360 11.0 18.0 0.00 0.00 0.00 54 1009.5
20260505162041 56 360 10.0 18.0 0.00 0.00 0.00 54 1009.5
20260505161605 56 360 10.0 18.0 0.00 0.00 0.00 54 1009.4
20260505161040 56 360 10.0 18.0 0.00 0.00 0.00 55 1009.4
20260505160541 56 360 10.0 18.0 0.00 0.00 0.00 55 1009.4
20260505153053 55 360 7.0 16.0 0.00 0.00 0.00 57 1009.2
20260505152541 55 360 8.0 16.0 0.00 0.00 0.00 58 1009.2
20260505152040 55 360 8.0 16.0 0.00 0.00 0.00 58 1009.2
20260505151555 55 360 8.0 15.0 0.00 0.00 0.00 58 1009.1
20260505151040 55 360 7.0 15.0 0.00 0.00 0.00 58 1009.1
20260505150540 55 360 8.0 15.0 0.00 0.00 0.00 60 1009.1
20260505140537 54 360 3.0 6.0 0.00 0.00 0.00 68 1008.7
20260505130108 53 360 4.0 9.0 0.00 0.00 0.00 68 1007.9
20260505125038 53 360 4.0 9.0 0.00 0.00 0.00 67 1007.8
20260505124602 53 360 4.0 9.0 0.00 0.00 0.00 67 1007.8
20260505124040 53 360 3.0 6.0 0.00 0.00 0.00 67 1007.7
20260505123541 53 360 3.0 6.0 0.00 0.00 0.00 67 1007.6
20260505123053 53 360 3.0 6.0 0.00 0.00 0.00 66 1007.6
20260505122540 53 360 1.0 4.0 0.00 0.00 0.00 66 1007.6
20260505122040 53 360 1.0 4.0 0.00 0.00 0.00 66 1007.6
20260505121551 53 360 2.0 5.0 0.00 0.00 0.00 66 1007.6
20260505121040 53 360 1.0 5.0 0.00 0.00 0.00 66 1007.6
20260505120542 54 360 2.0 5.0 0.00 0.00 0.00 66 1007.6
20260505120109 54 360 2.0 5.0 0.00 0.00 0.00 65 1007.6
20260505115537 54 360 1.0 5.0 0.00 0.00 0.00 65 1007.6
20260505115041 54 360 0.0 2.0 0.00 0.00 0.00 65 1007.6
20260505114556 54 0 0.0 5.0 0.00 0.00 0.00 65 1007.6
20260505114038 54 360 0.0 5.0 0.00 0.00 0.00 65 1007.6
20260505113542 54 360 1.0 5.0 0.00 0.00 0.00 65 1007.5
20260505113053 54 360 3.0 5.0 0.00 0.00 0.00 65 1007.4
20260505112540 54 360 3.0 5.0 0.00 0.00 0.00 65 1007.4
20260505112040 54 360 3.0 5.0 0.00 0.00 0.00 65 1007.4
20260505111553 54 360 2.0 6.0 0.00 0.00 0.00 64 1007.4
20260505111040 54 360 2.0 6.0 0.00 0.00 0.00 64 1007.4
20260505110540 54 360 2.0 8.0 0.00 0.00 0.00 64 1007.4
20260505102038 55 360 3.0 9.0 0.00 0.00 0.00 62 1007.3
20260505101550 55 360 3.0 9.0 0.00 0.00 0.00 62 1007.4
20260505101039 55 360 5.0 9.0 0.00 0.00 0.00 62 1007.4
20260505100537 55 360 5.0 10.0 0.00 0.00 0.00 62 1007.4
20260505100047 55 360 6.0 10.0 0.00 0.00 0.00 62 1007.4
20260505095539 55 360 5.0 10.0 0.00 0.00 0.00 62 1007.5
20260505095037 55 360 5.0 9.0 0.00 0.00 0.00 62 1007.5
20260505094551 55 360 5.0 8.0 0.00 0.00 0.00 63 1007.6
20260505094037 55 360 4.0 8.0 0.00 0.00 0.00 63 1007.6
20260505093537 55 360 2.0 8.0 0.00 0.00 0.00 63 1007.6
20260505093051 55 360 4.0 8.0 0.00 0.00 0.00 63 1007.7
20260505092539 55 360 4.0 9.0 0.00 0.00 0.00 63 1007.7
20260505092038 55 360 3.0 11.0 0.00 0.00 0.00 62 1007.7
20260505091550 55 360 4.0 11.0 0.00 0.00 0.00 62 1007.7
20260505091040 55 360 5.0 11.0 0.00 0.00 0.00 62 1007.6
20260505090537 55 360 5.0 15.0 0.00 0.00 0.00 62 1007.7
20260505090052 55 360 6.0 15.0 0.00 0.00 0.00 62 1007.8
20260505085538 55 360 8.0 13.0 0.00 0.00 0.00 62 1007.8
20260505085041 55 360 5.0 14.0 0.00 0.00 0.00 62 1007.8
20260505084555 55 360 6.0 14.0 0.00 0.00 0.00 62 1007.8
20260505084040 55 360 8.0 12.0 0.00 0.00 0.00 62 1007.8
20260505083540 55 360 6.0 12.0 0.00 0.00 0.00 62 1007.8
20260505083053 55 360 7.0 12.0 0.00 0.00 0.00 62 1007.8
20260505082540 55 360 7.0 12.0 0.00 0.00 0.00 62 1007.9
20260505082040 55 360 6.0 12.0 0.00 0.00 0.00 62 1007.9
20260505081558 55 360 7.0 14.0 0.00 0.00 0.00 63 1007.9
20260505081037 55 360 8.0 16.0 0.00 0.00 0.00 63 1008.0
20260505080538 55 360 9.0 16.0 0.00 0.00 0.00 63 1008.1
20260505080055 55 360 8.0 12.0 0.00 0.00 0.00 63 1008.1
20260505075540 55 360 8.0 10.0 0.00 0.00 0.00 63 1008.2
20260505075038 55 360 5.0 10.0 0.00 0.00 0.00 63 1008.3
20260505074551 55 360 5.0 10.0 0.00 0.00 0.00 63 1008.3
20260505074037 55 360 6.0 10.0 0.00 0.00 0.00 63 1008.3
20260505073538 55 360 6.0 10.0 0.00 0.00 0.00 63 1008.3
20260505073052 55 360 4.0 11.0 0.00 0.00 0.00 63 1008.3
20260505072539 55 360 5.0 11.0 0.00 0.00 0.00 63 1008.5
20260505072043 55 360 6.0 11.0 0.00 0.00 0.00 63 1008.5
20260505071553 55 360 7.0 11.0 0.00 0.00 0.00 62 1008.5
20260505071039 55 360 6.0 14.0 0.00 0.00 0.00 62 1008.6
20260505070543 55 360 7.0 14.0 0.00 0.00 0.00 62 1008.7
20260505070056 55 360 6.0 9.0 0.00 0.00 0.00 62 1008.7
20260505065538 56 360 4.0 8.0 0.00 0.00 0.00 62 1008.7
20260505065039 56 360 3.0 8.0 0.00 0.00 0.00 62 1008.7
20260505064546 56 360 5.0 8.0 0.00 0.00 0.00 62 1008.7
20260505064037 56 360 4.0 9.0 0.00 0.00 0.00 62 1008.7
20260505063538 56 360 4.0 11.0 0.00 0.00 0.00 61 1008.7
20260505063044 56 360 5.0 12.0 0.00 0.00 0.00 61 1008.7
20260505062538 56 360 7.0 15.0 0.00 0.00 0.00 61 1008.7
20260505062038 57 360 9.0 15.0 0.00 0.00 0.00 61 1008.6
20260505061559 57 360 9.0 16.0 0.00 0.00 0.00 61 1008.5
20260505061039 57 360 9.0 18.0 0.00 0.00 0.00 61 1008.5
20260505060543 57 360 10.0 18.0 0.00 0.00 0.00 61 1008.4
20260505060050 57 360 12.0 18.0 0.00 0.00 0.00 61 1008.3
20260505055539 57 360 11.0 17.0 0.00 0.00 0.00 60 1008.2
20260505055038 56 360 9.0 14.0 0.00 0.00 0.00 60 1008.1
20260505054554 56 360 8.0 13.0 0.00 0.00 0.00 59 1008.1
20260505054039 56 360 6.0 10.0 0.00 0.00 0.00 58 1007.9
20260505053537 56 360 4.0 10.0 0.00 0.00 0.00 57 1007.8
20260505053057 57 360 2.0 5.0 0.00 0.00 0.00 56 1007.5
20260505052537 57 360 2.0 5.0 0.00 0.00 0.00 56 1007.4
20260505052038 57 360 2.0 4.0 0.00 0.00 0.00 56 1007.4
20260505051546 57 360 2.0 4.0 0.00 0.00 0.00 55 1007.4
20260505051039 58 360 2.0 5.0 0.00 0.00 0.00 55 1007.4
20260505050538 58 360 3.0 6.0 0.00 0.00 0.00 55 1007.3
20260505041553 58 360 8.0 13.0 0.00 0.00 0.00 54 1006.9
20260505041039 58 360 6.0 10.0 0.00 0.00 0.00 53 1006.8
20260505040541 58 360 5.0 9.0 0.00 0.00 0.00 52 1006.8
20260505040053 59 360 4.0 8.0 0.00 0.00 0.00 52 1006.7
20260505035539 59 360 4.0 8.0 0.00 0.00 0.00 51 1006.6
20260505035038 59 360 4.0 8.0 0.00 0.00 0.00 51 1006.5
20260505034550 59 360 4.0 10.0 0.00 0.00 0.00 51 1006.5
20260505034039 59 360 4.0 10.0 0.00 0.00 0.00 51 1006.4
20260505033540 60 143 4.0 10.0 0.00 0.00 0.00 50 1006.4
20260505033049 60 360 3.0 7.0 0.00 0.00 0.00 49 1006.2
20260505032537 60 140 3.0 6.0 0.00 0.00 0.00 47 1006.1
20260505032038 61 140 2.0 4.0 0.00 0.00 0.00 47 1006.0
20260505031551 61 138 1.0 3.0 0.00 0.00 0.00 46 1005.8
20260505031038 62 134 1.0 4.0 0.00 0.00 0.00 46 1005.7
20260505030539 62 145 0.0 4.0 0.00 0.00 0.00 44 1005.7
20260505030052 63 154 0.0 5.0 0.00 0.00 0.00 44 1005.6
20260505025540 63 165 2.0 5.0 0.00 0.00 0.00 45 1005.6
20260505025038 64 167 0.0 5.0 0.00 0.00 0.00 44 1005.6
20260505024551 65 160 1.0 5.0 0.00 0.00 0.00 42 1005.4
20260505024037 65 156 2.0 5.0 0.00 0.00 0.00 41 1005.3
20260505023539 66 163 1.0 4.0 0.00 0.00 0.00 40 1005.3
20260505023056 66 155 1.0 5.0 0.00 0.00 0.00 40 1005.3
20260505022539 67 138 2.0 6.0 0.00 0.00 0.00 39 1005.4
20260505022043 68 147 2.0 7.0 0.00 0.00 0.00 38 1005.3
20260505021557 68 360 3.0 9.0 0.00 0.00 0.00 38 1005.3
20260505021037 69 109 4.0 9.0 0.00 0.00 0.00 38 1005.3
20260505020540 69 190 5.0 9.0 0.00 0.00 0.00 37 1005.3
20260505020052 70 186 5.0 9.0 0.00 0.00 0.00 36 1005.2
20260505015537 70 191 4.0 9.0 0.00 0.00 0.00 36 1005.2
20260505015038 71 175 4.0 9.0 0.00 0.00 0.00 35 1005.2
20260505014554 71 159 3.0 8.0 0.00 0.00 0.00 35 1005.1
20260505014039 72 167 3.0 8.0 0.00 0.00 0.00 35 1005.1
20260505013537 72 167 5.0 9.0 0.00 0.00 0.00 34 1005.1
20260505013047 73 162 5.0 9.0 0.00 0.00 0.00 34 1005.1
20260505012539 73 133 4.0 8.0 0.00 0.00 0.00 33 1005.1
20260505012041 73 173 5.0 7.0 0.00 0.00 0.00 33 1005.2
20260505011554 73 159 4.0 11.0 0.00 0.00 0.00 33 1005.2
20260505011041 74 150 4.0 12.0 0.00 0.00 0.00 32 1005.3
20260505010538 74 142 6.0 12.0 0.00 0.00 0.00 32 1005.3
20260505010101 74 85 6.0 12.0 0.00 0.00 0.00 33 1005.3
20260505005537 74 132 6.0 11.0 0.00 0.00 0.00 32 1005.3
20260505005038 74 194 5.0 14.0 0.00 0.00 0.00 32 1005.4
20260505004548 74 163 6.0 14.0 0.00 0.00 0.00 33 1005.4
20260505004037 74 189 7.0 14.0 0.00 0.00 0.00 32 1005.5
20260505003542 74 173 9.0 14.0 0.00 0.00 0.00 32 1005.6
20260505003050 74 140 6.0 17.0 0.00 0.00 0.00 33 1005.6
20260505002538 73 138 8.0 17.0 0.00 0.00 0.00 34 1005.7
20260505002039 73 163 7.0 15.0 0.00 0.00 0.00 34 1005.7
20260505001549 73 163 9.0 15.0 0.00 0.00 0.00 34 1005.7
20260505001037 73 165 7.0 12.0 0.00 0.00 0.00 35 1005.7
20260505000540 73 131 6.0 12.0 0.00 0.00 0.00 34 1005.7
20260505000055 73 186 7.0 22.0 0.00 0.00 0.00 33 1005.8
20260504235539 73 148 7.0 22.0 0.00 0.00 0.00 33 1005.7
20260504235039 74 194 10.0 21.0 0.00 0.00 0.00 32 1005.8
20260504234555 73 211 10.0 18.0 0.00 0.00 0.00 33 1005.8
20260504234037 73 203 10.0 19.0 0.00 0.00 0.00 32 1005.9
20260504233540 73 187 10.0 19.0 0.00 0.00 0.00 31 1005.8
20260504233054 73 178 12.0 19.0 0.00 0.00 0.00 31 1005.8
20260504232538 73 208 7.0 14.0 0.00 0.00 0.00 32 1005.7
20260504232038 73 219 6.0 14.0 0.00 0.00 0.00 33 1005.7
20260504231552 73 211 5.0 13.0 0.00 0.00 0.00 33 1005.8
20260504231038 73 205 7.0 14.0 0.00 0.00 0.00 32 1005.8
20260504230538 73 138 8.0 15.0 0.00 0.00 0.00 31 1005.8
20260504230052 73 202 8.0 20.0 0.00 0.00 0.00 30 1005.7
20260504225536 73 177 7.0 20.0 0.00 0.00 0.00 31 1005.8
20260504225041 73 217 11.0 20.0 0.00 0.00 0.00 33 1005.8
20260504224552 73 240 10.0 17.0 0.00 0.00 0.00 33 1005.8
20260504224040 73 194 8.0 18.0 0.00 0.00 0.00 34 1005.8
20260504223541 73 195 7.0 18.0 0.00 0.00 0.00 34 1005.8
20260504223049 73 184 10.0 20.0 0.00 0.00 0.00 33 1005.8
20260504222537 73 193 11.0 20.0 0.00 0.00 0.00 34 1005.8
20260504222039 74 235 12.0 23.0 0.00 0.00 0.00 32 1005.8
20260504221548 75 182 10.0 23.0 0.00 0.00 0.00 31 1005.8
20260504221038 76 202 11.0 23.0 0.00 0.00 0.00 29 1005.8
20260504220538 77 252 9.0 15.0 0.00 0.00 0.00 26 1005.8
20260504220111 76 240 6.0 13.0 0.00 0.00 0.00 26 1005.8
20260504215537 76 207 5.0 13.0 0.00 0.00 0.00 26 1005.9
20260504215036 76 228 8.0 13.0 0.00 0.00 0.00 27 1005.9
20260504214553 76 233 6.0 12.0 0.00 0.00 0.00 27 1006.0
20260504214038 77 252 4.0 11.0 0.00 0.00 0.00 27 1006.1
20260504213538 77 288 4.0 11.0 0.00 0.00 0.00 26 1006.1
20260504213053 76 310 6.0 11.0 0.00 0.00 0.00 27 1006.2
20260504212538 76 275 2.0 13.0 0.00 0.00 0.00 26 1006.4
20260504212039 76 291 5.0 14.0 0.00 0.00 0.00 26 1006.4
20260504211554 76 240 8.0 14.0 0.00 0.00 0.00 27 1006.5
20260504211038 76 195 4.0 12.0 0.00 0.00 0.00 28 1006.6